Change the Weather History Date:

Friday, November 4, 2011

  Actual Average Record
Temperature  
Mean Temperature 30 °F -  
Max Temperature 33 °F 34 °F 53 °F (2002)
Min Temperature 28 °F 21 °F -9 °F (1975)
Degree Days  
Heating Degree Days 34    
Moisture  
Dew Point 28 °F    
Average Humidity 88    
Maximum Humidity 100    
Minimum Humidity 81    
Precipitation  
Precipitation 0.00 in - - ()
Sea Level Pressure  
Sea Level Pressure 29.31 in    
Wind  
Wind Speed 5 mph (NE)    
Max Wind Speed 10 mph    
Max Gust Speed 16 mph    
Visibility 8 miles    
Events      
Averages and records for this station are not official NWS values.
T = Trace of Precipitation, MM = Missing Value Source: NWS Daily Summary

Daily Weather History Graph

Daily Weather History Graph

Search for Another Location

Airport or City:

Trip Planner

Search our weather history database for the weather conditions in past years. The results will help you decide how hot, cold, wet, or windy it might be!

Date:

Astronomy

Nov. 04, 2011 Rise Set
Actual Time 9:36 AM AKDT 5:58 PM AKDT
Civil Twilight 8:49 AM AKDT 6:44 PM AKDT
Nautical Twilight 7:58 AM AKDT 7:35 PM AKDT
Astronomical Twilight 7:09 AM AKDT 8:24 PM AKDT
Moon 4:08 PM AKDT (11/4) 2:34 AM AKDT (11/4)
Length of Visible Light 9h 55m
Length of Day
8h 21m
Waxing Gibbous, 71% of the Moon is Illuminated
Nov 4
Waxing Gibbous
Nov 10
Full
Nov 18
Last Quarter
Nov 24
New
Dec 2
First Quarter

Hourly Weather History & Observations

Time (AKDT) Temp. Windchill Dew Point Humidity Pressure Visibility Wind Dir Wind Speed Gust Speed Precip Events Conditions
12:16 AM 33.8 °F 27.7 °F 28.4 °F 81% 29.20 in 10.0 mi North 6.9 mph - N/A   Overcast
12:36 AM 32.0 °F 24.2 °F 28.4 °F 87% 29.20 in 10.0 mi NNE 9.2 mph - N/A   Overcast
12:56 AM 32.0 °F 24.8 °F 28.4 °F 87% 29.20 in 10.0 mi NNE 8.1 mph - N/A   Overcast
1:16 AM 30.2 °F 21.3 °F 26.6 °F 86% 29.19 in 10.0 mi NNE 10.4 mph 16.1 mph N/A   Overcast
1:36 AM 30.2 °F 24.3 °F 26.6 °F 86% 29.19 in 10.0 mi NE 5.8 mph - N/A   Overcast
1:56 AM 30.2 °F 24.3 °F 26.6 °F 86% 29.19 in 10.0 mi North 5.8 mph - N/A   Overcast
2:16 AM 30.2 °F 23.4 °F 26.6 °F 86% 29.19 in 10.0 mi NE 6.9 mph - N/A   Overcast
2:36 AM 30.2 °F 24.3 °F 26.6 °F 86% 29.19 in 10.0 mi NE 5.8 mph - N/A   Overcast
2:56 AM 30.2 °F 22.6 °F 26.6 °F 86% 29.18 in 10.0 mi NE 8.1 mph - N/A   Overcast
3:16 AM 30.2 °F - 26.6 °F 86% 29.18 in 10.0 mi Calm Calm - N/A   Overcast
3:36 AM 30.2 °F 23.4 °F 26.6 °F 86% 29.19 in 10.0 mi NE 6.9 mph - N/A   Overcast
3:56 AM 30.2 °F 25.4 °F 26.6 °F 86% 29.19 in 10.0 mi NE 4.6 mph - N/A   Overcast
4:16 AM 30.2 °F 25.4 °F 26.6 °F 86% 29.19 in 10.0 mi NE 4.6 mph - N/A   Overcast
4:36 AM 30.2 °F 25.4 °F 26.6 °F 86% 29.20 in 10.0 mi NE 4.6 mph - N/A   Overcast
4:56 AM 30.2 °F 25.4 °F 26.6 °F 86% 29.20 in 10.0 mi NE 4.6 mph - N/A   Overcast
5:16 AM 30.2 °F 24.3 °F 26.6 °F 86% 29.20 in 9.0 mi NNE 5.8 mph - N/A   Overcast
5:36 AM 30.2 °F 25.4 °F 26.6 °F 86% 29.20 in 6.0 mi NNE 4.6 mph - N/A   Overcast
5:56 AM 30.2 °F 25.4 °F 26.6 °F 86% 29.20 in 10.0 mi North 4.6 mph - N/A   Overcast
6:16 AM 30.2 °F 25.4 °F 28.4 °F 93% 29.20 in 10.0 mi NNE 4.6 mph - N/A   Overcast
6:36 AM 30.2 °F - 26.6 °F 86% 29.20 in 10.0 mi Calm Calm - N/A   Overcast
6:56 AM 30.2 °F 25.4 °F 26.6 °F 86% 29.21 in 10.0 mi North 4.6 mph - N/A   Overcast
7:16 AM 30.2 °F 25.4 °F 26.6 °F 86% 29.21 in 10.0 mi NE 4.6 mph - N/A   Overcast
7:36 AM 30.2 °F 25.4 °F 26.6 °F 86% 29.22 in 10.0 mi NNE 4.6 mph - N/A   Overcast
7:56 AM 30.2 °F 24.3 °F 26.6 °F 86% 29.22 in 10.0 mi NE 5.8 mph - N/A   Overcast
8:16 AM 30.2 °F 24.3 °F 28.4 °F 93% 29.23 in 10.0 mi ENE 5.8 mph - N/A   Overcast
8:36 AM 30.2 °F 24.3 °F 26.6 °F 86% 29.23 in 10.0 mi East 5.8 mph - N/A   Overcast
8:56 AM 30.2 °F 25.4 °F 26.6 °F 86% 29.24 in 10.0 mi ENE 4.6 mph - N/A   Overcast
9:16 AM 30.2 °F 26.7 °F 26.6 °F 86% 29.25 in 10.0 mi East 3.5 mph - N/A   Overcast
9:36 AM 30.2 °F 23.4 °F 26.6 °F 86% 29.26 in 10.0 mi ENE 6.9 mph - N/A   Overcast
9:56 AM 28.4 °F - 26.6 °F 93% 29.27 in 10.0 mi Calm Calm - N/A   Overcast
10:16 AM 30.2 °F 25.4 °F 26.6 °F 86% 29.28 in 10.0 mi NE 4.6 mph - N/A   Overcast
10:36 AM 30.2 °F 25.4 °F 26.6 °F 86% 29.29 in 9.0 mi ENE 4.6 mph - N/A   Overcast
10:56 AM 28.4 °F - 26.6 °F 93% 29.30 in 6.0 mi Calm Calm - N/A   Overcast
11:16 AM 30.2 °F - 26.6 °F 86% 29.31 in 10.0 mi Calm Calm - N/A   Overcast
11:36 AM 30.2 °F - 26.6 °F 86% 29.32 in 8.0 mi Calm Calm - N/A   Overcast
11:56 AM 30.2 °F 26.7 °F 26.6 °F 86% 29.33 in 3.0 mi North 3.5 mph - N/A   Overcast
12:16 PM 30.2 °F - 26.6 °F 86% 29.33 in 3.0 mi Calm Calm - N/A   Overcast
12:36 PM 30.2 °F 26.7 °F 26.6 °F 86% 29.33 in 2.5 mi ENE 3.5 mph - N/A   Overcast
12:56 PM 30.2 °F - 26.6 °F 86% 29.34 in 2.5 mi Calm Calm - N/A   Overcast
1:36 PM 30.2 °F - 28.4 °F 93% 29.36 in - Calm Calm - N/A   Overcast
1:56 PM 30.2 °F - 28.4 °F 93% 29.36 in 10.0 mi Calm Calm - N/A   Overcast
2:16 PM 30.2 °F - 28.4 °F 93% 29.37 in 9.0 mi Calm Calm - N/A   Overcast
2:36 PM 32.0 °F - 28.4 °F 87% 29.37 in - Calm Calm - N/A   Overcast
2:56 PM 30.2 °F - 28.4 °F 93% 29.38 in - Calm Calm - N/A   Overcast
3:16 PM 32.0 °F 26.4 °F 28.4 °F 87% 29.39 in 10.0 mi WSW 5.8 mph - N/A   Overcast
3:36 PM 32.0 °F 27.5 °F 28.4 °F 87% 29.40 in 10.0 mi WSW 4.6 mph - N/A   Overcast
3:56 PM 32.0 °F 25.6 °F 28.4 °F 87% 29.41 in 10.0 mi SW 6.9 mph - N/A   Overcast
4:16 PM 33.8 °F 27.0 °F 28.4 °F 81% 29.41 in 10.0 mi SW 8.1 mph - N/A   Overcast
4:36 PM 32.0 °F 25.6 °F 28.4 °F 87% 29.43 in 10.0 mi WSW 6.9 mph - N/A   Overcast
4:56 PM 30.2 °F 25.4 °F 26.6 °F 86% 29.43 in 10.0 mi WSW 4.6 mph - N/A   Overcast
5:16 PM 33.8 °F - 30.2 °F 87% 29.44 in 10.0 mi Calm Calm - N/A   Overcast
5:36 PM 33.8 °F - 30.2 °F 87% 29.44 in 6.0 mi Calm Calm - N/A   Overcast
5:56 PM 32.0 °F - 30.2 °F 93% 29.45 in - Calm Calm - N/A   Unknown
6:16 PM 32.0 °F 28.7 °F 30.2 °F 93% 29.46 in 3.0 mi East 3.5 mph - N/A   Overcast
6:36 PM 32.0 °F - 30.2 °F 93% 29.47 in 2.5 mi Calm Calm - N/A   Overcast
6:56 PM 32.0 °F - 30.2 °F 93% 29.47 in 2.5 mi Calm Calm - N/A   Overcast
7:16 PM 32.0 °F 28.7 °F 30.2 °F 93% 29.48 in 3.0 mi East 3.5 mph - N/A   Overcast
7:36 PM 30.2 °F 26.7 °F 30.2 °F 100% 29.48 in 3.0 mi East 3.5 mph - N/A   Overcast
7:56 PM 30.2 °F - 28.4 °F 93% 29.49 in 7.0 mi Calm Calm - N/A   Overcast
8:16 PM 32.0 °F - 30.2 °F 93% 29.50 in 10.0 mi Calm Calm - N/A   Overcast
8:56 PM 32.0 °F - 30.2 °F 93% 29.51 in 7.0 mi Calm Calm - N/A   Overcast
9:16 PM 32.0 °F - 30.2 °F 93% 29.51 in - Calm Calm - N/A   Overcast
9:36 PM 32.0 °F - 30.2 °F 93% 29.52 in 9.0 mi Calm Calm - N/A   Overcast
9:56 PM 32.0 °F - 30.2 °F 93% 29.53 in 10.0 mi Calm Calm - N/A   Overcast
10:16 PM 32.0 °F - 30.2 °F 93% 29.54 in 10.0 mi Calm Calm - N/A   Overcast
10:36 PM 32.0 °F - 30.2 °F 93% 29.55 in - Calm Calm - N/A   Unknown
10:56 PM 30.2 °F - 30.2 °F 100% 29.56 in - Calm Calm - N/A   Unknown
11:36 PM 30.2 °F - 30.2 °F 100% 29.57 in - Calm Calm - N/A   Overcast
11:56 PM 30.2 °F - 28.4 °F 93% 29.58 in - Calm Calm - N/A   Overcast